TVF21TN LFPO-LJLJ

Flight info

Callsign TVF21TN
Flight time 1h 30m
Altitude 37000
Route BUBLI DCT LUVAL DCT MIRGU DCT BEGAR DCT TRA DCT GAMSA DCT GEDSO DCT DEGUM
Aircraft B738/M-SDFGHIJ1RWXY/LB1

Departure

Time 2026-04-23 16:34
Airport Paris-Orly Airport (LFPO)

Arrival

Time 2026-04-23 18:05
Airport Ljubljana Jože Pučnik Airport (LJLJ)
Time Latitude Longitude Altitude Speed Heading
2026-04-23 16:22 48.72377 2.36399 293 ft 0 kts 198°
2026-04-23 16:27 48.72378 2.36399 289 ft 2 kts 198°
2026-04-23 16:28 48.72402 2.36411 293 ft 4 kts 197°
2026-04-23 16:28 48.72428 2.36423 292 ft 4 kts 199°
2026-04-23 16:28 48.72452 2.36439 294 ft 4 kts 218°
2026-04-23 16:28 48.72465 2.36464 294 ft 3 kts 254°
2026-04-23 16:29 48.72471 2.36499 291 ft 1 kts 254°
2026-04-23 16:30 48.72471 2.36497 290 ft 1 kts 255°
2026-04-23 16:31 48.72464 2.36457 294 ft 7 kts 255°
2026-04-23 16:31 48.72444 2.36351 293 ft 14 kts 254°
2026-04-23 16:31 48.72418 2.36205 291 ft 14 kts 255°
2026-04-23 16:31 48.72391 2.36064 289 ft 14 kts 253°
2026-04-23 16:32 48.72367 2.35928 291 ft 13 kts 255°
2026-04-23 16:32 48.72342 2.35795 293 ft 14 kts 253°
2026-04-23 16:32 48.72305 2.35644 291 ft 16 kts 234°
2026-04-23 16:32 48.72207 2.35610 291 ft 16 kts 168°
2026-04-23 16:33 48.72105 2.35652 289 ft 15 kts 157°
2026-04-23 16:33 48.72030 2.35753 289 ft 14 kts 123°
2026-04-23 16:33 48.71976 2.35876 291 ft 14 kts 128°
2026-04-23 16:33 48.71970 2.36008 289 ft 13 kts 75°
2026-04-23 16:34 48.72013 2.36242 292 ft 49 kts 74°
2026-04-23 16:34 48.72164 2.37065 291 ft 111 kts 75°
2026-04-23 16:34 48.72420 2.38435 371 ft 152 kts 73°
2026-04-23 16:34 48.72701 2.40012 964 ft 158 kts 73°
2026-04-23 16:35 48.72999 2.41607 1709 ft 154 kts 74°
2026-04-23 16:35 48.73284 2.43139 2461 ft 155 kts 74°
2026-04-23 16:35 48.73578 2.44707 3207 ft 156 kts 73°
2026-04-23 16:35 48.73885 2.46350 3731 ft 172 kts 74°
2026-04-23 16:36 48.74079 2.48292 3948 ft 199 kts 86°
2026-04-23 16:36 48.74149 2.50489 4160 ft 219 kts 87°
2026-04-23 16:36 48.74226 2.52840 4597 ft 228 kts 88°
2026-04-23 16:36 48.74313 2.55337 4835 ft 251 kts 86°
2026-04-23 16:37 48.74503 2.58013 5441 ft 258 kts 84°
2026-04-23 16:37 48.74729 2.60661 6383 ft 254 kts 85°
2026-04-23 16:37 48.74952 2.63321 7101 ft 257 kts 84°
2026-04-23 16:37 48.75175 2.66052 7681 ft 265 kts 84°
2026-04-23 16:38 48.75401 2.68861 8354 ft 268 kts 84°
2026-04-23 16:38 48.75622 2.71678 9128 ft 269 kts 85°
2026-04-23 16:38 48.75841 2.74509 9885 ft 271 kts 85°
2026-04-23 16:38 48.76057 2.77323 10512 ft 275 kts 84°
2026-04-23 16:39 48.76287 2.80354 10769 ft 296 kts 85°
2026-04-23 16:39 48.76531 2.83564 10939 ft 317 kts 84°
2026-04-23 16:39 48.76790 2.86971 11194 ft 334 kts 84°
2026-04-23 16:39 48.77058 2.90483 11831 ft 337 kts 85°
2026-04-23 16:40 48.77326 2.94024 12484 ft 340 kts 85°
2026-04-23 16:40 48.77597 2.97617 13096 ft 346 kts 84°
2026-04-23 16:40 48.77914 3.00828 13760 ft 347 kts 82°
2026-04-23 16:40 48.78346 3.04437 14438 ft 351 kts 81°
2026-04-23 16:41 48.78805 3.08110 14949 ft 358 kts 81°
2026-04-23 16:41 48.79266 3.11820 15635 ft 360 kts 81°
2026-04-23 16:41 48.79726 3.15581 16230 ft 365 kts 81°
2026-04-23 16:41 48.80182 3.19382 16862 ft 368 kts 81°
2026-04-23 16:42 48.80637 3.23220 17510 ft 371 kts 82°
2026-04-23 16:42 48.81090 3.27051 18085 ft 376 kts 82°
2026-04-23 16:42 48.81551 3.30980 18667 ft 380 kts 82°
2026-04-23 16:42 48.82014 3.34941 19229 ft 383 kts 82°
2026-04-23 16:43 48.82297 3.38942 19796 ft 382 kts 93°
2026-04-23 16:43 48.82095 3.42961 20392 ft 382 kts 97°
2026-04-23 16:43 48.81802 3.46977 20949 ft 384 kts 98°
2026-04-23 16:43 48.81497 3.51023 21473 ft 387 kts 98°
2026-04-23 16:44 48.81199 3.55102 21969 ft 391 kts 97°
2026-04-23 16:44 48.80913 3.59209 22512 ft 393 kts 97°
2026-04-23 16:44 48.80635 3.63346 23049 ft 395 kts 97°
2026-04-23 16:44 48.80362 3.67499 23560 ft 397 kts 97°
2026-04-23 16:45 48.80090 3.71679 24026 ft 399 kts 97°
2026-04-23 16:45 48.79817 3.75879 24435 ft 401 kts 97°
2026-04-23 16:45 48.79541 3.80101 24860 ft 403 kts 97°
2026-04-23 16:45 48.79263 3.84339 25272 ft 405 kts 97°
2026-04-23 16:46 48.78982 3.88589 25679 ft 406 kts 97°
2026-04-23 16:46 48.78698 3.92862 26069 ft 408 kts 98°
2026-04-23 16:46 48.78411 3.97151 26454 ft 410 kts 98°
2026-04-23 16:46 48.78122 4.01457 26830 ft 412 kts 98°
2026-04-23 16:47 48.77830 4.05784 27194 ft 413 kts 98°
2026-04-23 16:47 48.77533 4.10132 27548 ft 415 kts 98°
2026-04-23 16:47 48.77020 4.14427 27862 ft 415 kts 110°
2026-04-23 16:47 48.75765 4.18338 28226 ft 413 kts 124°
2026-04-23 16:48 48.74117 4.21921 28604 ft 414 kts 126°
2026-04-23 16:48 48.72423 4.25457 28921 ft 416 kts 126°
2026-04-23 16:48 48.70732 4.28958 29232 ft 418 kts 126°
2026-04-23 16:48 48.69018 4.32523 29546 ft 420 kts 126°
2026-04-23 16:49 48.67860 4.34944 29752 ft 421 kts 126°
2026-04-23 16:49 48.65598 4.39702 30282 ft 420 kts 126°
2026-04-23 16:49 48.63904 4.43279 30728 ft 417 kts 126°
2026-04-23 16:49 48.62225 4.46829 31101 ft 415 kts 126°
2026-04-23 16:50 48.60547 4.50378 31409 ft 415 kts 126°
2026-04-23 16:50 48.58868 4.53924 31698 ft 415 kts 126°
2026-04-23 16:50 48.57187 4.57469 32035 ft 414 kts 126°
2026-04-23 16:50 48.55513 4.60994 32383 ft 413 kts 126°
2026-04-23 16:51 48.53838 4.64518 32670 ft 413 kts 126°
2026-04-23 16:51 48.52160 4.68041 32967 ft 413 kts 126°
2026-04-23 16:51 48.50486 4.71552 33302 ft 412 kts 126°
2026-04-23 16:51 48.48815 4.75052 33628 ft 411 kts 126°
2026-04-23 16:52 48.47146 4.78543 33911 ft 410 kts 126°
2026-04-23 16:52 48.45477 4.82030 34197 ft 410 kts 126°
2026-04-23 16:52 48.43809 4.85510 34452 ft 409 kts 126°
2026-04-23 16:52 48.42141 4.88986 34667 ft 410 kts 126°
2026-04-23 16:53 48.40469 4.92467 34844 ft 411 kts 126°
2026-04-23 16:53 48.38792 4.95954 35060 ft 411 kts 126°
2026-04-23 16:53 48.37115 4.99436 35281 ft 411 kts 126°
2026-04-23 16:53 48.35436 5.02917 35480 ft 412 kts 126°
2026-04-23 16:54 48.33753 5.06405 35670 ft 412 kts 126°
2026-04-23 16:54 48.32067 5.09891 35865 ft 413 kts 126°
2026-04-23 16:54 48.30449 5.13458 36026 ft 414 kts 120°
2026-04-23 16:54 48.29168 5.17328 36215 ft 414 kts 113°
2026-04-23 16:55 48.28266 5.21438 36448 ft 415 kts 106°
2026-04-23 16:55 48.27546 5.25627 36631 ft 415 kts 105°
2026-04-23 16:55 48.26835 5.29834 36799 ft 416 kts 105°
2026-04-23 16:55 48.26132 5.33983 36996 ft 416 kts 106°
2026-04-23 16:56 48.25404 5.38239 37199 ft 415 kts 106°
2026-04-23 16:56 48.24677 5.42440 37256 ft 418 kts 106°
2026-04-23 16:56 48.23209 5.50832 37258 ft 418 kts 106°
2026-04-23 16:57 48.21729 5.59213 37271 ft 414 kts 106°
2026-04-23 16:57 48.20254 5.67524 37262 ft 411 kts 106°
2026-04-23 16:58 48.18782 5.75775 37268 ft 409 kts 106°
2026-04-23 16:58 48.17312 5.83984 37264 ft 407 kts 106°
2026-04-23 16:59 48.15838 5.92176 37264 ft 408 kts 106°
2026-04-23 16:59 48.14356 6.00378 37268 ft 409 kts 105°
2026-04-23 17:00 48.12861 6.08613 37263 ft 411 kts 105°
2026-04-23 17:00 48.11353 6.16879 37266 ft 413 kts 105°
2026-04-23 17:01 48.09832 6.25182 37264 ft 415 kts 105°
2026-04-23 17:01 48.08299 6.33512 37263 ft 416 kts 105°
2026-04-23 17:02 48.06756 6.41860 37255 ft 417 kts 105°
2026-04-23 17:02 48.05204 6.50217 37266 ft 417 kts 105°
2026-04-23 17:03 48.03657 6.58522 37268 ft 418 kts 105°
2026-04-23 17:03 48.02092 6.66876 37269 ft 417 kts 105°
2026-04-23 17:04 48.00903 6.75349 37271 ft 417 kts 100°
2026-04-23 17:04 47.99940 6.83865 37278 ft 416 kts 99°
2026-04-23 17:05 47.98957 6.92365 37269 ft 415 kts 99°
2026-04-23 17:05 47.97940 7.00841 37271 ft 414 kts 100°
2026-04-23 17:06 47.96908 7.09299 37258 ft 414 kts 100°
2026-04-23 17:06 47.95871 7.17743 37254 ft 414 kts 100°
2026-04-23 17:07 47.94826 7.26187 37250 ft 414 kts 99°
2026-04-23 17:07 47.93778 7.34623 37251 ft 414 kts 99°
2026-04-23 17:08 47.92722 7.43061 37251 ft 414 kts 100°
2026-04-23 17:08 47.91661 7.51498 37269 ft 414 kts 100°
2026-04-23 17:09 47.90475 7.59903 37252 ft 416 kts 107°
2026-04-23 17:09 47.88455 7.67983 37267 ft 417 kts 109°
2026-04-23 17:10 47.86364 7.76032 37260 ft 418 kts 109°
2026-04-23 17:10 47.84636 7.82769 37259 ft 419 kts 109°
2026-04-23 17:11 47.82572 7.90879 37255 ft 420 kts 109°
2026-04-23 17:11 47.80505 7.99011 37254 ft 421 kts 109°
2026-04-23 17:12 47.78427 8.07144 37258 ft 422 kts 109°
2026-04-23 17:12 47.76399 8.15053 37258 ft 423 kts 109°
2026-04-23 17:13 47.74249 8.23412 37272 ft 422 kts 109°
2026-04-23 17:13 47.72152 8.31535 37272 ft 422 kts 109°
2026-04-23 17:14 47.70079 8.39544 37270 ft 422 kts 109°
2026-04-23 17:14 47.68014 8.47696 37273 ft 421 kts 107°
2026-04-23 17:15 47.66160 8.55939 37269 ft 421 kts 106°
2026-04-23 17:15 47.64357 8.64060 37262 ft 421 kts 106°
2026-04-23 17:16 47.62500 8.72283 37264 ft 420 kts 107°
2026-04-23 17:16 47.60626 8.80482 37268 ft 420 kts 107°
2026-04-23 17:17 47.58759 8.88601 37262 ft 421 kts 106°
2026-04-23 17:17 47.56875 8.96760 37265 ft 420 kts 107°
2026-04-23 17:18 47.54094 9.08750 37263 ft 421 kts 107°
2026-04-23 17:19 47.52141 9.17135 37265 ft 422 kts 107°
2026-04-23 17:19 47.50222 9.25339 37270 ft 422 kts 106°
2026-04-23 17:20 47.48337 9.33372 37262 ft 423 kts 106°
2026-04-23 17:21 47.45331 9.46128 37276 ft 422 kts 106°
2026-04-23 17:21 47.42663 9.57377 37266 ft 423 kts 107°
2026-04-23 17:22 47.40219 9.68606 37270 ft 420 kts 99°
2026-04-23 17:23 47.38523 9.81244 37271 ft 420 kts 98°
2026-04-23 17:24 47.36816 9.93933 37270 ft 421 kts 98°
2026-04-23 17:24 47.35045 10.06620 37280 ft 422 kts 98°
2026-04-23 17:25 47.33246 10.19332 37285 ft 423 kts 98°
2026-04-23 17:26 47.30816 10.36337 37304 ft 425 kts 98°
2026-04-23 17:27 47.28963 10.49163 37274 ft 426 kts 98°
2026-04-23 17:27 47.27728 10.57675 37266 ft 423 kts 98°
2026-04-23 17:28 47.26496 10.66119 37252 ft 421 kts 98°
2026-04-23 17:28 47.25264 10.74511 37257 ft 418 kts 98°
2026-04-23 17:29 47.24030 10.82864 37260 ft 417 kts 98°
2026-04-23 17:30 47.22172 10.95367 37253 ft 417 kts 98°
2026-04-23 17:30 47.20307 11.07827 37240 ft 419 kts 98°
2026-04-23 17:31 47.19043 11.16210 37228 ft 421 kts 98°
2026-04-23 17:31 47.17766 11.24632 37222 ft 423 kts 98°
2026-04-23 17:32 47.16479 11.33074 37207 ft 424 kts 98°
2026-04-23 17:32 47.15184 11.41521 37210 ft 424 kts 98°
2026-04-23 17:33 47.13879 11.49993 37201 ft 425 kts 98°
2026-04-23 17:33 47.12569 11.58452 37211 ft 425 kts 98°
2026-04-23 17:34 47.11253 11.66907 37205 ft 425 kts 98°
2026-04-23 17:35 47.09268 11.79591 37202 ft 425 kts 98°
2026-04-23 17:35 47.07803 11.88042 36762 ft 436 kts 106°
2026-04-23 17:35 47.06556 11.92085 36482 ft 432 kts 110°
2026-04-23 17:36 47.05245 11.96029 36038 ft 429 kts 110°
2026-04-23 17:36 47.03937 11.99937 35638 ft 425 kts 110°
2026-04-23 17:36 47.02648 12.03804 35235 ft 421 kts 110°
2026-04-23 17:36 47.01375 12.07646 34838 ft 417 kts 110°
2026-04-23 17:37 47.00119 12.11446 34441 ft 413 kts 109°
2026-04-23 17:37 46.98879 12.15213 34037 ft 408 kts 109°
2026-04-23 17:37 46.96442 12.22626 33205 ft 401 kts 109°
2026-04-23 17:38 46.95238 12.26284 32841 ft 396 kts 109°
2026-04-23 17:38 46.94047 12.29895 32477 ft 392 kts 109°
2026-04-23 17:38 46.92862 12.33483 32076 ft 390 kts 109°
2026-04-23 17:38 46.91687 12.37038 31704 ft 387 kts 109°
2026-04-23 17:39 46.90522 12.40556 31357 ft 383 kts 109°
2026-04-23 17:39 46.89361 12.44060 30966 ft 381 kts 109°
2026-04-23 17:39 46.88208 12.47528 30608 ft 378 kts 109°
2026-04-23 17:39 46.87061 12.50981 30249 ft 376 kts 109°
2026-04-23 17:40 46.85920 12.54414 29804 ft 375 kts 109°
2026-04-23 17:40 46.84784 12.57826 29420 ft 372 kts 109°
2026-04-23 17:40 46.83672 12.61156 29049 ft 368 kts 109°
2026-04-23 17:40 46.82559 12.64483 28648 ft 360 kts 110°
2026-04-23 17:41 46.81468 12.67735 28307 ft 354 kts 109°
2026-04-23 17:41 46.79325 12.74127 27595 ft 348 kts 109°
2026-04-23 17:41 46.78266 12.77290 27244 ft 346 kts 109°
2026-04-23 17:42 46.76154 12.83575 26510 ft 345 kts 110°
2026-04-23 17:42 46.75097 12.86713 26159 ft 344 kts 110°
2026-04-23 17:42 46.74043 12.89843 25817 ft 347 kts 110°
2026-04-23 17:43 46.72962 12.93052 25480 ft 357 kts 111°
2026-04-23 17:43 46.71860 12.96318 25101 ft 360 kts 111°
2026-04-23 17:43 46.70755 12.99579 24700 ft 358 kts 112°
2026-04-23 17:43 46.69657 13.02810 24348 ft 353 kts 112°
2026-04-23 17:44 46.68571 13.05999 24006 ft 352 kts 112°
2026-04-23 17:44 46.67485 13.09192 23599 ft 352 kts 112°
2026-04-23 17:44 46.65321 13.15546 22817 ft 348 kts 112°
2026-04-23 17:45 46.64253 13.18673 22460 ft 346 kts 112°
2026-04-23 17:45 46.62127 13.24894 21751 ft 341 kts 112°
2026-04-23 17:45 46.61090 13.27920 21405 ft 339 kts 112°
2026-04-23 17:46 46.58991 13.34041 20715 ft 337 kts 112°
2026-04-23 17:46 46.57947 13.37081 20372 ft 336 kts 112°
2026-04-23 17:46 46.56906 13.40107 20027 ft 334 kts 112°
2026-04-23 17:47 46.55868 13.43123 19696 ft 333 kts 112°
2026-04-23 17:47 46.54841 13.46106 19370 ft 332 kts 112°
2026-04-23 17:47 46.52776 13.52083 18672 ft 330 kts 112°
2026-04-23 17:48 46.51748 13.55057 18296 ft 329 kts 112°
2026-04-23 17:48 46.50723 13.58017 17919 ft 326 kts 112°
2026-04-23 17:48 46.49709 13.60943 17593 ft 323 kts 111°
2026-04-23 17:48 46.48700 13.63853 17248 ft 322 kts 111°
2026-04-23 17:49 46.47694 13.66747 16921 ft 321 kts 111°
2026-04-23 17:49 46.46690 13.69631 16579 ft 319 kts 112°
2026-04-23 17:49 46.45728 13.72533 16143 ft 321 kts 109°
2026-04-23 17:49 46.44821 13.75476 15821 ft 319 kts 108°
2026-04-23 17:50 46.43930 13.78411 15479 ft 317 kts 108°
2026-04-23 17:50 46.42171 13.84190 14811 ft 310 kts 108°
2026-04-23 17:50 46.41299 13.87026 14530 ft 306 kts 108°
2026-04-23 17:51 46.40431 13.89845 14203 ft 307 kts 108°
2026-04-23 17:51 46.39571 13.92634 13803 ft 308 kts 108°
2026-04-23 17:51 46.37826 13.98256 13099 ft 302 kts 108°
2026-04-23 17:52 46.36966 14.01023 12784 ft 301 kts 108°
2026-04-23 17:52 46.35252 14.06527 12130 ft 298 kts 108°
2026-04-23 17:52 46.34401 14.09258 11817 ft 297 kts 108°
2026-04-23 17:53 46.32697 14.14717 11190 ft 298 kts 108°
2026-04-23 17:53 46.31842 14.17450 10866 ft 298 kts 109°
2026-04-23 17:53 46.30987 14.20181 10554 ft 298 kts 109°
2026-04-23 17:54 46.30132 14.22898 10254 ft 295 kts 109°
2026-04-23 17:54 46.29296 14.25554 10148 ft 286 kts 108°
2026-04-23 17:54 46.27677 14.30709 9668 ft 280 kts 108°
2026-04-23 17:55 46.26076 14.35803 9092 ft 277 kts 109°
2026-04-23 17:55 46.25278 14.38330 8803 ft 276 kts 109°
2026-04-23 17:55 46.24752 14.39994 8613 ft 275 kts 109°
2026-04-23 17:56 46.23518 14.43236 8207 ft 281 kts 129°
2026-04-23 17:56 46.20503 14.46835 7696 ft 280 kts 137°
2026-04-23 17:56 46.19501 14.48006 7513 ft 279 kts 137°
2026-04-23 17:57 46.18000 14.49770 7263 ft 278 kts 137°
2026-04-23 17:57 46.16502 14.51520 6993 ft 277 kts 138°
2026-04-23 17:57 46.13517 14.54951 6570 ft 271 kts 139°
2026-04-23 17:58 46.12044 14.56642 6439 ft 265 kts 139°
2026-04-23 17:58 46.10626 14.58271 6321 ft 258 kts 139°
2026-04-23 17:58 46.09242 14.59860 6204 ft 250 kts 139°
2026-04-23 17:58 46.07917 14.61378 6118 ft 237 kts 139°
2026-04-23 17:59 46.06658 14.62874 5853 ft 231 kts 130°
2026-04-23 17:59 46.05985 14.64839 5620 ft 213 kts 90°
2026-04-23 17:59 46.06200 14.66870 5422 ft 203 kts 62°
2026-04-23 17:59 46.07019 14.68466 5201 ft 198 kts 35°
2026-04-23 18:00 46.08239 14.69289 4987 ft 194 kts
2026-04-23 18:00 46.09559 14.69171 4769 ft 189 kts 342°
2026-04-23 18:00 46.10606 14.68186 4695 ft 180 kts 315°
2026-04-23 18:00 46.11491 14.66826 4445 ft 188 kts 315°
2026-04-23 18:01 46.12342 14.65392 4206 ft 186 kts 310°
2026-04-23 18:01 46.13104 14.63954 3965 ft 174 kts 309°
2026-04-23 18:01 46.13794 14.62603 3777 ft 159 kts 308°
2026-04-23 18:01 46.14420 14.61367 3517 ft 151 kts 308°
2026-04-23 18:02 46.15023 14.60172 3321 ft 146 kts 308°
2026-04-23 18:02 46.15635 14.58966 3135 ft 152 kts 308°
2026-04-23 18:02 46.16273 14.57728 2944 ft 156 kts 307°
2026-04-23 18:02 46.16911 14.56470 2732 ft 155 kts 307°
2026-04-23 18:03 46.17550 14.55214 2506 ft 156 kts 306°
2026-04-23 18:03 46.18182 14.53963 2337 ft 155 kts 306°
2026-04-23 18:03 46.18824 14.52707 2109 ft 155 kts 306°
2026-04-23 18:03 46.19457 14.51466 1878 ft 151 kts 306°
2026-04-23 18:04 46.20089 14.50228 1705 ft 156 kts 305°
2026-04-23 18:04 46.20735 14.48961 1498 ft 155 kts 306°
2026-04-23 18:04 46.21373 14.47713 1279 ft 152 kts 304°
2026-04-23 18:04 46.21948 14.46583 1226 ft 116 kts 306°
2026-04-23 18:05 46.22298 14.45897 1243 ft 60 kts 307°
2026-04-23 18:05 46.22488 14.45546 1246 ft 42 kts 314°
2026-04-23 18:05 46.22649 14.45405 1252 ft 4 kts 351°
2026-04-23 18:05 46.22673 14.45382 1254 ft 4 kts 321°
2026-04-23 18:06 46.22698 14.45361 1255 ft 4 kts 336°
2026-04-23 18:06 46.22734 14.45345 1260 ft 9 kts 345°
2026-04-23 18:06 46.22815 14.45322 1257 ft 16 kts
2026-04-23 18:06 46.22913 14.45390 1262 ft 15 kts 31°
2026-04-23 18:07 46.22985 14.45447 1262 ft 4 kts 35°
2026-04-23 18:07 46.23002 14.45465 1263 ft 2 kts 36°
2026-04-23 18:07 46.23003 14.45467 1263 ft 0 kts 36°